Location: *
(58.7167°N, 26.1833°E)
Time: 23:51:49
(UTC+00:00)

CZ-4C R/B - Pass Details

Date: 25 August 2019
Orbit: 655 x 1347 km, 63.4° (Epoch: 20 September)

Event Time Altitude Azimuth Distance (km) Brightness Sun altitude
Exits shadow 21:43:10 23° 224° (SW) 1,700 3.4 -20.3°
Maximum altitude 21:46:46 76° 143° (SE) 927 2.2 -20.4°
Drops below altitude 10° 21:53:21 10° 58° (ENE) 2,837 5.2 -20.5°
Sets 21:56:14 0° 58° (ENE) 3,904 6.0 -20.5°
